Погода Санкт-Петербург

Погода Санкт-Петербург : погода сейчас, прогноз погоды и архив. Всё, что Вы хотите узнать о погоде Санкт-Петербург!

Хотите узнать прогноз погоды в Санкт-Петербурге? Тогда Вам сюда: Погода в Санкт-Петербурге

Поиск расширенной информации на нашем сайте:

Другие новости

Новости СМИ2

Главная страница сайта

Новости сайта

03.07.2017

Напоминаем, что на нашем специализированном сайте Метеоцентр.Азия вы можете получить высокодетализированные автоматические прогнозы погоды по пунктам России, СНГ и мира в авиационном формате (включающие направление и скорость ветра, видимость, явления погоды, количество и форму облачности, нижнюю и верхнюю границу облачности).


Погода Санкт-Петербург - сегодня

Время (UTC), дата Ветер
(°,м/с) 
Видим.   Явления Облачность Т
(°С)
Тd
(°С)
f(%) Тe
(°С)
Pmin
(гПа)
dP
(гПа)
Po
(мм)
O2
(г/м3)
Тmin Tmax R s Состояние
почвы
09 19.07.17 310 (СЗ) 10 км    9/4 600 м средняя, верхняя 
[Cu med, cong|Ac trans|Ci sp]
+17.5 +9.7 60 +19  1012.6  0.6  759  286           
12 19.07.17 270 (З) 3{10}  10 км    10/6 600 м средняя, верхняя 
[Cu med, cong|Ac trans|Cs]
+16.8 +10.3 65 +18  1012.9  0.3  759  286           
15 19.07.17 230 (ЮЗ) 3{10}  10 км  слаб. ливневой дождь  9/8 300 м кучево-дожд., средняя 
[Cb calv|Ac cuf]
+14.6 +10.9 78 +17  1012.5  -0.4  759  288         
18 19.07.17 270 (З) 10 км  {ливн. осадки}  9/8 300 м средняя 
[Sc diur, vesp|Ac cuf]
+15.2 +8.5 64 +15  1012.4  -0.2  759  288    +18     
21 19.07.17 240 (ЮЗ) 10 км  в посл. час ливневой дождь  9/8 300 м средняя 
[Sc diur, vesp|Ac trans]
+13.7 +10.2 79 +15  1012.2  -0.2  759  289           
00 20.07.17 230 (ЮЗ) 10 км  {ливн. осадки}  9/8 300 м средняя 
[Sc diur, vesp|Ac trans]
+13.1 +10.2 83 +15  1011.9  -0.2  758  290           
03 20.07.17 230 (ЮЗ) 4000 м  слаб. ливневой дождь  9/8 300 м кучево-дожд., средняя 
[Cb calv|Ac cuf]
+12.6 +11 90 +15  1011.6  -0.3  758  290  +12.4       
06 20.07.17 240 (ЮЗ) 10 км  {ливн. осадки}  8/5 700 м средняя, верхняя 
[Sc diur, vesp|Ac As|Ci fib]
+14.4 +10.9 79 +17  1011.7  0.1  758  288  +12.4      влажная 
09 20.07.17 260 (З) 10 км    8/5 800 м средняя, верхняя 
[Sc|Ac As|Ci fib]
+16.1 +11.1 72 +18  1011.9  0.2  758  287           
12 20.07.17 240 (ЮЗ) 10 км    6/3 600 м средняя, верхняя 
[Cu hum|Ac As|Ci fib]
+17.1 +11 67 +20  1011.9  758  286           
15 20.07.17 240 (ЮЗ) 10 км    6/3 600 м средняя, верхняя 
[Cu hum|Ac As|Ci fib]
+17.3 +10.9 66 +20  1011.9  0.1  758  285      0.3     
18 20.07.17 280 (З) 10 км    6/0 средняя, верхняя 
[Ac As|Ci fib]
+15.3 +10.2 72 +18  1012.4  0.5  759  288    +17.7       
21 20.07.17 260 (З) 10 км    4/0 средняя, верхняя 
[Ac As|Ci fib]
+14.6 +11.7 83 +19  1012.5  0.2  759  288           
00 21.07.17 тихо ()   10 км    ясно 
+12.3 +11.3 94 +15  1012.9  0.3  759  291           
03 21.07.17 360 (С) 10 км    3/0 верхняя 
[Ci fib]
+12.2 +11.5 95 +16  1013.2  0.3  759  291  +11.4         
06 21.07.17 тихо ()   10 км    8/0 средняя 
[Ac trans]
+15.1 +10.5 74 +17  1014.2  760  288  +11.4        влажная 
09 21.07.17 250 (З) 10 км    5/1 600 м средняя 
[Cu med, cong|Ac trans]
+18.6 +11.2 62 +22  1014.7  0.4  760  285           
12 21.07.17 060 (СВ) 10 км    6/3 600 м средняя 
[Sc diur, vesp|Ac trans]
+19.7 +10.8 56 +23  1015  0.4  761  284           
15 21.07.17 010 (С) 10 км  {ливн. осадки}  4/3 600 м средняя 
[Cu med, cong|Ac trans]
+19.8 +10.3 54 +22  1015.1  0.1  761  284         
18 21.07.17 340 (С) 10 км  {ливн. осадки}  3/0 средняя 
[Ac trans]
+17.5 +9.7 60 +20  1016  0.9  761  287    +20.5     
21 21.07.17 тихо ()   10 км    1/0 средняя 
[Ac trans]
+14.1 +12.4 89 +18  1016.4  0.4  762  289           
00 22.07.17 тихо ()   10 км    ясно 
+12.7 +11.9 95 +16  1016.9  0.5  762  291           
03 22.07.17 030 (СВ) 10 км    6/0 средняя 
[Ac trans]
+13.2 +12.5 96 +18  1017.2  0.3  762  291  +12.1         
06 22.07.17 030 (СВ) 10 км    4/0 средняя 
[Ac trans]
+17.4 +11.2 67 +21  1017.7  0.5  763  287  +12.1        мокрая 
09 22.07.17 250 (З) 10 км    5/5 600 м 
[Cu med, cong]
+19.7 +11.6 60 +24  1017.6  0.1  763  284           
Время (UTC), дата Ветер
(°,м/с) 
Видим.   Явления Облачность Т
(°С)
Тd
(°С)
f(%) Тe
(°С)
Pmin
(гПа)
dP
(гПа)
Po
(мм)
O2
(г/м3)
Тmin Tmax R s Состояние
почвы

Для получения пояснительной информации подведите курсор к названию столбца.

ПОГОДА Санкт-Петербург - архив

Всё, что Вы хотите узнать о погоде Санкт-Петербург - удобно и подробно!

Выберите нужную дату (начиная с 1 января 2015* года) и нажмите кнопку "Найти".
Будут отображены архивные сводки погоды по пункту Санкт-Петербург, начиная с указанной даты.


Отображать данные в формате CSV (для использования в таблицах Excel)


Внимание! Наш архив погоды предназначен исключительно для личного некоммерческого использования в познавательных целях. Если Вам необходимы официальные справки о состоянии погоды (для производственных, юридических, коммерческих и т.п. целей), обращайтесь в органы Росгидромета.

*Примечание: данная дата относится к архиву по метеостанциям СССР (Россия, СНГ, Балтия).
Архив по метеостанциям Зарубежной Европы и Азии (кроме Китая) хранится 10 дней, по другим регионам земного шара (Китай, Африка, Америка, Австралия, Океания) - 1 день.

Санкт-Петербург - район местоположения метеостанции


Название, широта, долгота, высота метеостанции:
Санкт-Петербург (ИЦП) 60°ш. 30.3°д. 6 м над ур. моря [Российская Федерация]

Дополнительная информация

В oтличие oт бoльшинства пoгoдных сайтoв мы публикуем пoдрoбную метеoинфoрмацию в детальнoм прoфессиoнальнoм фoрмате.

Характеристики температуры и влажнoсти вoздуха измеряются на высoте 2 м в тени вдали oт зданий и деревьев.
Скoрoсть ветра измеряется на высoте 10 м (на урoвне рoста челoвека скoрoсть ветра ниже в 1.5-2 раза). Если метеoстанция нахoдится в гoрoде или в лесу, тo скoрoсть ветра занижена на 2-4 м/с пo сравнению с oткрытым местoм. Скoрoсть ветра над акватoриями крупных рек и oзёр, а также на вершинах хoлмoв на 2-5 м/с выше, чем в oбычных услoвиях.
Атмoсфернoе давление в разных тoчках местнoсти мoжет значительнo oтличаться oт давления на метеoстанции, в зависимoсти oт услoвий рельефа (при пoдъёме на 10 м давление пoнижается примернo на 1 мм рт.ст.).